Regional Weather Roundup
Issued by NWS Charleston, SC

Current Version | Previous Version | Text Only | Print | Product List | Glossary Off
Versions: 1 2 3 4 5 6 7 8 9 10 11 12 13 14 15 16 17 18 19 20 21 22 23 24 25 26 27 28 29 30 31 32 33 34 35 36 37 38 39 40 41 42 43 44 45 46 47 48 49 50
631 ASUS42 KCHS 291412 RWRCHS REGIONAL WEATHER ROUNDUP NATIONAL WEATHER SERVICE CHARLESTON SC 1000 AM EDT WED MAR 29 2017 NOTE: "FAIR" INDICATES FEW OR NO CLOUDS BELOW 12,000 FEET WITH NO SIGNIFICANT WEATHER AND/OR OBSTRUCTIONS TO VISIBILITY. NOT ALL STATIONS ARE QUALITY CONTROLLED. USE DATA WITH CAUTION... ESPECIALLY DEWPOINT OBSERVATIONS. SCZ027-030-031-034>040-042>050-291500- ...SOUTHEAST SOUTH CAROLINA... CITY SKY/WX TMP DP RH WIND PRES REMARKS N CHARLESTON MOSUNNY 71 54 54 NE8 30.02R WATERFRONT PRK N/A 67 58 72 N7 30.00R JOHNS ISLAND FAIR 72 57 60 N8 30.02R PINOPOLIS N/A 64 57 77 NE6 29.94R MONCKS CORNER FAIR 68 52 56 N5 30.03R SUMMERVILLE FAIR 68 54 60 N7 30.04R BEAUFORT MCAS SUNNY 71 59 65 NE9 30.03R BEAUFORT ARPT FAIR 70 59 68 NE12 30.03R HAZE HILTON HEAD IS SUNNY 72 59 64 NE8 30.03R WALTERBORO SUNNY 70 54 56 NE7 30.04R ALLENDALE FAIR 70 54 56 VRB6 30.04R ...SOUTHERN MIDLANDS AND PEE DEE... CITY SKY/WX TMP DP RH WIND PRES REMARKS GEORGETOWN FAIR 70 54 56 NE7 30.03R KINGSTREE FAIR 68 50 52 NE5 30.03S ORANGEBURG SUNNY 69 52 54 NE12 30.04R BARNWELL FAIR 72 54 53 E9 30.05R AIKEN FAIR 66 52 59 NE12 30.09R MANNING FAIR 68 52 56 E5 30.04R COLUMBIA SUNNY 70 52 52 VRB7 30.05R SUMTER SUNNY 69 52 54 N3 30.02R FLORENCE SUNNY 67 54 63 NE12 30.03R MYRTLE BEACH SUNNY 70 54 56 N12 30.02 N MYRTLE BEACH SUNNY 70 55 59 NE8 30.01R $$ GAZ063-065-086>088-099>101-113>116-118-119-134>141-150-291500- ...SOUTHEAST GEORGIA... CITY SKY/WX TMP DP RH WIND PRES REMARKS SAVANNAH ARPT MOSUNNY 74 56 53 NE10 30.03R HUNTER AAF SUNNY 73 62 67 NE7 30.00R FORT STEWART SUNNY 74 60 61 N7 30.00R STATESBORO SUNNY 72 57 59 E7 30.04R SYLVANIA SUNNY N/A N/A N/A E8 30.06R CLAXTON FAIR N/A N/A N/A NE6 30.04R ...CSRA...CENTRAL AND FAR SOUTHEAST GEORGIA... CITY SKY/WX TMP DP RH WIND PRES REMARKS THOMSON SUNNY 68 52 56 SE10 30.11S AUGUSTA-BUSH SUNNY 71 55 56 E5 30.05R AUGUSTA-DANIEL SUNNY 70 49 47 NE9 30.07R SWAINSBORO FAIR 72 54 53 E9 30.06R VIDALIA SUNNY 72 61 68 CALM 30.05R EASTMAN FAIR 73 55 53 CALM 30.07R HAZLEHURST FAIR 72 67 83 NW5 30.03R ALMA SUNNY 72 65 78 NW6 30.03R WAYCROSS SUNNY 77 70 77 N8 30.03S JESUP FAIR 73 61 64 N6 30.03R BAXLEY FAIR 73 70 88 N7 30.03S BRUNSWICK SUNNY 73 66 78 NW5 30.03R SAINT SIMONS SUNNY 74 63 68 NW6 30.02R $$ SCZ027-028-034-036>038-045-046-048>050-GAZ119-141-291500- ...LAKE AND SUPPLEMENTAL COASTAL OBSERVATIONS... STATION/POSITION TIME TEMP WIND PRES WAVE SWELL AIR SEA DIR/SP/G HT/PER HT/PER/DIR (UTC) (F) (DEG/KT/KT) (MB) (FT/S) (FT/S/D) WINYAH BAY NOT AVBL LAKE MURRAY 1320 65 40/ 1/ 3 1017.3 ACE BASIN NERRS NOT AVBL FORT PULASKI 1348 69 65 40/ 6/ 9 1016.8R SAPELO ISLAND 1300 69 320/ 5 1016.0 $$ ANZ835-935-AMZ111-154-330-350-352-354-370-450-454-472-291500- ...C-MAN AND BUOY OBSERVATIONS... STATION/POSITION TIME TEMP WIND PRES WAVE SWELL AIR SEA DIR/SP/G HT/PER HT/PER/DIR (UTC) (F) (DEG/KT/KT) (MB) (FT/S) (FT/S/D) BUOY 41004 1250 70 70 30/ 12/ 14 1014.8 4/10 3/110/10 BUOY 41008 1250 66 64 280/ 4/ 6 1015.6 3/10 3/ 90/10 FOLLY BEACH CMAN 1300 66 30/ 7/ 8 1016.6R CAPERS NEARSHORE NOT AVBL FRIPP NEARSHORE 1308 65 63 20/ 6/ 8 1015.7R STATION/POSITION TIME TEMP WIND PRES WAVE SWELL AIR SEA DIR/SP/G HT/PER HT/PER/DIR (UTC) (F) (DEG/KT/KT) (MB) (FT/S) (FT/S/D) 5E ST. MARYS GA 1330 67 N/A 4/11 2/100/11 FRYING PAN BUOY 1350 68 74 20/ 12/ 14 1015.5R 4/10 3/130/10 BUOY 41025 1350 56 74 20/ 21/ 27 1016.4R 6/10 3/130/10 CAPE LOOKOUT NC 1300 62 40/ 17/ 20 1016.0R BUOY 41002 1350 70 72 260/ 6/ 8 1014.8F 6/10 7/100/10 BUOY 41010 NOT AVBL ST AUGUSTINE FL 1400 72 67 270/ 3/ 5 1018.5R $$

USA.gov is the U.S. government's official web portal to all federal, state and local government web resources and services.